Content
SEND FEEDBACK

Daily
Averages
Monthly
Summary
United States of America

HAZELWOOD, MISSOURI


Home > North America > United States > Missouri
Elevation: 570 feet     Latitude: 38 45N     Longitude: 090 22W

WEATHER
 
SELECT A DAY
Number of Records: 196,364;   Date Range: 1/1/95 - 7/26/14
 
SHARE

PRINT THIS DATA

[ ← Previous Day ]
WEATHER ALMANAC - MARCH 14, 2013
[ Next Day → ]
[ °C ]   °F
Weather ElementAverageHighLow
Temperature38.9 °F54 °F (4:54 pm)25 °F (2:54 am)
Dewpoint24 °F30.9 °F (9:54 pm)18 °F (7:54 am)
Humidity57.8 %85 % (11:54 pm)34 % (3:54 pm)
Barometer30.24 in30.42 in (2:54 am)30.10 in (5:54 pm)
Wind Speed4.4 mph11.5 mph (4:54 pm)
Wind Gust17.3 mph (1:54 pm)
Weather ElementAverage
Visibility10 mi
Wind DirectionENE (82.2 °)

Weather ElementTotal
Precipitation---
Heating Degree Days25.5 (Base 65)
Averaged from 23 records on March 14, 2013
WEATHER CONDITIONS BREAKOUT
WIND DIRECTION BREAKOUT
WEATHER BY HOUR - MARCH 14, 2013
[ °C ]   °F
Local TimeTemperatureDewpointHumidityBarometerVisibilityWind DirectionWind SpeedGust SpeedPrecipitationEventsConditions
1:54 AM26.1 °F19.9 °F78 %30.41 in10.0 miCalmClear
2:54 AM25.0 °F19.0 °F78 %30.42 in10.0 miCalmClear
3:54 AM26.1 °F21.0 °F81 %30.38 in10.0 miCalmClear
4:54 AM26.1 °F19.9 °F78 %30.37 in10.0 miCalmOvercast
5:54 AM28.9 °F23.0 °F78 %30.37 in10.0 miCalmOvercast
6:54 AM33.1 °F19.0 °F56 %30.35 in10.0 miSSE (160°)4.6 mphOvercast
7:54 AM34.0 °F18.0 °F52 %30.35 in10.0 miVariable3.5 mphOvercast
8:54 AM35.1 °F18.0 °F50 %30.35 in10.0 miVariable4.6 mphOvercast
9:54 AM37.0 °F18.0 °F46 %30.35 in10.0 miSouth (190°)3.5 mphOvercast
10:54 AM37.0 °F19.9 °F50 %30.34 in10.0 miSW (230°)5.8 mph0.00 inOvercast
11:54 AM39.9 °F24.1 °F53 %30.27 in10.0 miSSE (160°)8.1 mph0.00 inOvercast
12:54 PM43.0 °F24.1 °F47 %30.23 in10.0 miSouth (170°)8.1 mph0.00 inRainLight Rain
1:54 PM48.0 °F25.0 °F41 %30.19 in10.0 miSSE (160°)9.2 mph17.3 mph0.00 inMostly Cloudy
2:54 PM48.9 °F25.0 °F39 %30.17 in10.0 miSSE (150°)9.2 mphMostly Cloudy
3:54 PM53.1 °F25.0 °F34 %30.14 in10.0 miSouth (180°)10.4 mphScattered Clouds
4:54 PM54.0 °F27.0 °F35 %30.12 in10.0 miSSE (160°)11.5 mphPartly Cloudy
5:54 PM53.1 °F27.0 °F37 %30.10 in10.0 miVariable3.5 mphMostly Cloudy
6:54 PM50.0 °F28.9 °F44 %30.10 in10.0 miEast (90°)4.6 mphScattered Clouds
7:54 PM45.0 °F28.9 °F53 %30.11 in10.0 miEast (80°)5.8 mphClear
8:54 PM39.9 °F30.0 °F68 %30.12 in10.0 miEast (90°)4.6 mphClear
9:54 PM41.0 °F30.9 °F67 %30.11 in10.0 miENE (70°)3.5 mphClear
10:54 PM36.0 °F30.0 °F79 %30.11 in10.0 miCalmClear
11:54 PM34.0 °F30.0 °F85 %30.11 in10.0 miCalmClear
Hourly data recorded from KSUS, located miles away from Hazelwood, Missouri







STORIES FROM OUR PARTNERS